This is the latest recevied weather packets stored in our database for station/object AF5AA. If no packets are shown the sender has not sent any weather packets the latest 10 day(s).
| Time | Temp. | Humidity | Pressure | Rain* | Wind** | Luminosity | Snow |
|---|---|---|---|---|---|---|---|
| 1778092111 | 18.89° C | 81% | 1010.3 hPa | 0 mm | - | 103 W/m² | - |
| 1778091808 | 19.44° C | 82% | 1010.1 hPa | 0 mm | - | 124 W/m² | - |
| 1778091505 | 18.89° C | 81% | 1010.4 hPa | 0 mm | - | 177 W/m² | - |
| 1778091203 | 18.89° C | 82% | 1010.8 hPa | 0 mm | - | 143 W/m² | - |
| 1778090900 | 18.33° C | 83% | 1011.1 hPa | 0 mm | - | 142 W/m² | - |
| 1778090596 | 17.78° C | 84% | 1011.1 hPa | 0 mm | - | 194 W/m² | - |
| 1778090292 | 17.78° C | 84% | 1012.3 hPa | 0 mm | - | 191 W/m² | - |
| 1778089989 | 17.22° C | 84% | 1011.7 hPa | 0 mm | - | 166 W/m² | - |
| 1778089687 | 17.22° C | 85% | 1011.6 hPa | 0 mm | - | 163 W/m² | - |
| 1778089384 | 16.67° C | 86% | 1012 hPa | 0 mm | - | 147 W/m² | - |
| 1778089081 | 16.67° C | 85% | 1012.2 hPa | 0 mm | - | 105 W/m² | - |
| 1778088778 | 16.67° C | 85% | 1012.2 hPa | 0 mm | - | 112 W/m² | - |
| 1778088475 | 16.67° C | 86% | 1012.1 hPa | 0 mm | - | 126 W/m² | - |
| 1778088171 | 16.67° C | 86% | 1013 hPa | 0 mm | - | 141 W/m² | - |
| 1778087869 | 16.67° C | 86% | 1013.2 hPa | 0 mm | - | 74 W/m² | - |
| 1778087566 | 16.11° C | 86% | 1013.1 hPa | 0 mm | - | 128 W/m² | - |
| 1778087264 | 16.11° C | 87% | 1013.3 hPa | 0 mm | - | 62 W/m² | - |
| 1778086960 | 16.67° C | 87% | 1013.5 hPa | 0 mm | - | 75 W/m² | - |
| 1778086658 | 16.11° C | 87% | 1013.4 hPa | 0 mm | - | 92 W/m² | - |
| 1778086355 | 16.11° C | 88% | 1013.5 hPa | 0 mm | - | 86 W/m² | - |
| 1778086052 | 16.11° C | 88% | 1013.8 hPa | 0 mm | - | 64 W/m² | - |
| 1778085749 | 16.11° C | 88% | 1013.9 hPa | 0 mm | - | 38 W/m² | - |
| 1778085446 | 16.67° C | 88% | 1014.1 hPa | 0 mm | - | 37 W/m² | - |
| 1778085141 | 16.67° C | 88% | 1014 hPa | 0 mm | - | 29 W/m² | - |
| 1778084837 | 16.67° C | 88% | 1013.7 hPa | 0 mm | - | 27 W/m² | - |
* Rain latest hour (hover to see other rain measurements)
** Current wind speed in m/s (hover to see current wind gust speed)